[[{"header":{"parameterUnit":"m.s-1","parameterCategory":2,"la1":30.2991,"la2":30.254,"lo1":-89.0895,"lo2":-89.0444,"dy":0.0017,"dx":0.0017,"nx":28,"ny":28,"refTime":"2025-03-14T09:00:00:Z","depth":"0","parameterNumber":2,"parameterNumberName":"U-component_of_CURRENTS"},"data":[0,0,0,0,0,0,0,0,0,0,0,0,0,0,0,0,0,0,0,0,0,0,0,0,0,0,0,0,0,0,0,0,0,0,0,0,0,0,0,0,0,0,0,0,0,0,0,0,0,0,0,0,0,0,0,0,0,0,0.2247,0.2248,0,0.2294,0.2294,0.2295,0.2285,0.2284,0.2284,0.2283,0.2293,0.2293,0.2294,0,0,0,0,0,0,0,0,0,0,0,0,0,0.2188,0.2188,0.2247,0.2248,0.2249,0.2294,0.2294,0.2295,0.2285,0.2284,0.2283,0.2283,0.2292,0.2293,0.2294,0,0,0,0,0,0,0,0,0,0,0,0,0,0.222,0.2189,0.2247,0.2251,0.2252,0.2294,0.2294,0.2295,0.2285,0.2284,0.2283,0.2282,0.2292,0.2293,0.2295,0.2324,0,0,0.2299,0.2299,0,0,0,0,0,0,0,0,0.2218,0.2222,0.2249,0.225,0.2252,0.2284,0.2277,0.2303,0.2286,0.2271,0.2283,0.2282,0.2288,0.229,0.2299,0.2324,0.2325,0.2299,0.23,0.23,0.2301,0,0,0,0,0,0,0,0.2216,0.222,0.2264,0.225,0.2252,0.2263,0.2266,0.2282,0.2283,0.2272,0.2272,0.228,0.2288,0.2298,0.2299,0.2325,0.2299,0.23,0.2301,0.2301,0.2403,0.2404,0,0,0,0,0,0,0.2213,0.2218,0.2262,0.2265,0.2234,0.2265,0.2268,0.2273,0.2283,0.2285,0.2281,0.228,0.2296,0.2297,0.2299,0.2354,0.23,0.2301,0.2302,0.2401,0.2403,0.2405,0,0,0,0,0,0,0.2212,0.2216,0.2261,0.2244,0.2251,0.2267,0.2273,0.2275,0.2287,0.2291,0.2291,0.2291,0.2295,0.2297,0.2327,0.2354,0.2302,0.2303,0.2399,0.2401,0.2404,0.2452,0,0,0,0,0,0,0.221,0.2216,0.2221,0.2244,0.2252,0.2293,0.2274,0.2277,0.2294,0.2293,0.23,0.23,0.2294,0.2325,0.2328,0.2355,0.2304,0.2396,0.24,0.2403,0.2448,0.2456,0.2463,0,0,0,0,0,0.2207,0.2223,0.2221,0.2227,0.2258,0.2295,0.23,0.2306,0.2296,0.2311,0.2318,0.2299,0.2349,0.2328,0.2331,0.2358,0.2394,0.2399,0.2403,0.2444,0.2454,0.2463,0,0,0,0,0,0,0.22,0.2225,0.2223,0.2245,0.227,0.2294,0.2311,0.2313,0.2332,0.2329,0.2323,0.2325,0.2364,0.2359,0.2335,0.24,0.237,0.2375,0.24,0.2409,0.2417,0.2425,0.2305,0,0,0,0,0,0.2202,0.222,0.2244,0.2263,0.2276,0.2294,0.2309,0.2316,0.2335,0.2341,0.2347,0.236,0.2386,0.2393,0.2414,0.2447,0.2458,0.2469,0.2476,0.2482,0.2494,0.2543,0.2556,0.2419,0.2419,0.2419,0,0,0.2205,0.2221,0.223,0.2263,0.2281,0.2315,0.23,0.2332,0.236,0.2341,0.2379,0.2389,0.2403,0.2444,0.246,0.2439,0.2528,0.2488,0.2493,0.2501,0.2549,0.2562,0.2574,0.2422,0.2421,0.2421,0,0,0.2226,0.2234,0.2258,0.2283,0.2317,0.2335,0.2345,0.2375,0.2387,0.2427,0.2426,0.2455,0.2483,0.2504,0.2516,0.258,0.2571,0.2583,0.2621,0.2669,0.2681,0.2691,0.272,0.2733,0.258,0.258,0.258,0,0.2227,0.2257,0.2272,0.2305,0.2329,0.2345,0.238,0.2406,0.2441,0.246,0.2445,0.2512,0.2517,0.2576,0.2596,0.2597,0.2615,0.2581,0.2678,0.2689,0.2698,0.2726,0.2739,0.2583,0.2583,0.2582,0.2582,0,0.2267,0.2293,0.2314,0.2357,0.2387,0.2422,0.2458,0.2487,0.25,0.2524,0.2581,0.2596,0.2631,0.2642,0.2637,0.2711,0.27,0.2685,0.2652,0.2715,0.274,0.2753,0.2587,0.2586,0.2585,0.2585,0,0,0.2256,0.2327,0.2331,0.2358,0.2416,0.2443,0.2499,0.2552,0.2591,0.2622,0.2674,0.2719,0.2721,0.2737,0.2738,0.2777,0.2856,0.276,0.2762,0.2783,0.2957,0.2896,0.2904,0.2858,0.2861,0.2863,0.2945,0,0.228,0.2342,0.2375,0.2436,0.247,0.2507,0.2558,0.2608,0.2649,0.2705,0.2732,0.2784,0.276,0.278,0.2818,0.2854,0.2893,0.2834,0.2898,0.29,0.2833,0.2918,0.2792,0.2851,0.2958,0.296,0.2961,0,0.23,0.234,0.2399,0.2471,0.2489,0.2528,0.2604,0.2656,0.2739,0.2772,0.2826,0.2849,0.2916,0.2882,0.2974,0.2938,0.2956,0.2975,0.2978,0.2914,0.2864,0.2807,0.287,0.2828,0.2981,0.2979,0.2978,0,0.2272,0.2354,0.2397,0.2422,0.2508,0.2537,0.2586,0.267,0.2718,0.282,0.2856,0.2939,0.2972,0.3026,0.3051,0.3026,0.3145,0.3112,0.3074,0.3069,0.2972,0.2953,0.2995,0.3184,0.3184,0.3184,0.3184,0,0.2279,0.2308,0.2385,0.2406,0.2459,0.2525,0.2593,0.2655,0.2749,0.2817,0.2881,0.2947,0.3012,0.3072,0.3095,0.3127,0.3181,0.3105,0.3099,0.2983,0.2966,0.293,0.2897,0.3187,0.3186,0.3186,0.3185,0,0.2233,0.2288,0.2334,0.2418,0.2444,0.2478,0.2578,0.263,0.2724,0.2814,0.2846,0.2967,0.306,0.3105,0.32,0.3169,0.3132,0.3208,0.3057,0.3032,0.2932,0.2905,0.282,0.2747,0.3187,0.3186,0.3185,0,0.221,0.2232,0.2316,0.2339,0.2372,0.2437,0.2483,0.26,0.2661,0.2827,0.2863,0.2985,0.3055,0.316,0.3152,0.3181,0.3115,0.3072,0.3,0.2933,0.29,0.2781,0.2719,0.2893,0.289,0.2887,0.2885,0,0.2157,0.2188,0.2226,0.2276,0.2321,0.2379,0.2456,0.2498,0.2644,0.2718,0.284,0.2917,0.302,0.3012,0.3041,0.3042,0.2926,0.302,0.3001,0.2723,0.2547,0.2471,0.2826,0.2863,0.2865,0.2867,0.2868,0.2869,0.2099,0.2111,0.2163,0.2204,0.2251,0.2296,0.2309,0.2402,0.2481,0.2564,0.2725,0.2773,0.2869,0.2895,0.288,0.2785,0.2769,0.2713,0.2703,0.2603,0.2475,0.2773,0.2768,0.2769,0.2771,0.2772,0.2773,0,0.2027,0.2058,0.2089,0.2132,0.2139,0.22,0.2266,0.226,0.2301,0.2412,0.2484,0.2559,0.2569,0.2627,0.2595,0.2495,0.2367,0.2444,0.2267,0.2236,0.2559,0.249,0.2363,0.2363,0.2363,0.2363,0.2363,0.2363,0.1989,0.2001,0.2025,0.2009,0.2026,0.2007,0.2016,0.2026,0.207,0.2095,0.2125,0.22,0.2397,0.2465,0.2385,0.2314,0.2168,0.2037,0.207,0.2329,0.2354,0.2377,0.2307,0.2143,0.2143,0.1647,0.1643,0.164]},{"header":{"parameterUnit":"m.s-1","parameterCategory":2,"la1":30.2991,"la2":30.254,"lo1":-89.0895,"lo2":-89.0444,"dy":0.0017,"dx":0.0017,"nx":28,"ny":28,"refTime":"2025-03-14T09:00:00:Z","depth":"0","parameterNumber":3,"parameterNumberName":"V-component_of_CURRENTS"},"data":[0,0,0,0,0,0,0,0,0,0,0,0,0,0,0,0,0,0,0,0,0,0,0,0,0,0,0,0,0,0,0,0,0,0,0,0,0,0,0,0,0,0,0,0,0,0,0,0,0,0,0,0,0,0,0,0,0,0,0.0136,0.0136,0,0.0116,0.0116,0.0115,0.0091,0.0091,0.0091,0.0091,0.0026,0.0024,0.0022,0,0,0,0,0,0,0,0,0,0,0,0,0,0.0103,0.0104,0.0136,0.0136,0.0136,0.0116,0.0116,0.0115,0.0091,0.0091,0.0091,0.0091,0.0026,0.0024,0.0022,0,0,0,0,0,0,0,0,0,0,0,0,0,0.0102,0.0104,0.0136,0.0123,0.0122,0.0116,0.0116,0.0115,0.0091,0.0091,0.0091,0.0091,0.0027,0.0024,0.0022,0.0013,0,0,0.0015,0.0014,0,0,0,0,0,0,0,0,0.0102,0.0103,0.0125,0.0124,0.0123,0.0108,0.008,0.0079,0.0091,0.0101,0.0091,0.009,0.005,0.0046,0.0041,0.001,0.0007,0.0015,0.0013,0.0012,0.0012,0,0,0,0,0,0,0,0.0102,0.0103,0.0126,0.0125,0.0124,0.0101,0.0101,0.0079,0.0075,0.01,0.0099,0.01,0.0049,0.0043,0.0039,0.0006,0.0015,0.0013,0.0011,0.001,-0.004,-0.004,0,0,0,0,0,0,0.0112,0.0104,0.0127,0.0126,0.0114,0.0102,0.0102,0.0111,0.0076,0.0071,0.01,0.0099,0.0047,0.0042,0.0036,0.0034,0.0012,0.001,0.0009,-0.004,-0.004,-0.004,0,0,0,0,0,0,0.0111,0.0115,0.0128,0.0115,0.0115,0.0104,0.0114,0.0111,0.0107,0.0077,0.0071,0.01,0.0047,0.004,0.0023,0.003,0.0009,0.0007,-0.004,-0.004,-0.004,0.0021,0,0,0,0,0,0,0.0111,0.0115,0.012,0.0116,0.0117,0.0132,0.0114,0.0111,0.0109,0.0107,0.0075,0.0068,0.0046,0.0027,0.0021,0.0027,0.0005,-0.004,-0.004,-0.004,0.0019,0.0023,0.0027,0,0,0,0,0,0.011,0.0125,0.0121,0.0123,0.0127,0.0133,0.0131,0.0119,0.011,0.0113,0.0091,0.007,0.0024,0.0026,0.0018,0.0023,-0.004,-0.004,-0.004,0.0017,0.0022,0.0027,0,0,0,0,0,0,0.0111,0.0124,0.0119,0.0137,0.0137,0.0129,0.0132,0.0123,0.0109,0.0105,0.0073,0.0065,0.0052,0.0028,0.0032,0.0008,-0.0013,-0.0014,0.0033,0.0037,0.0041,0.006,0.0003,0,0,0,0,0,0.0115,0.0131,0.0134,0.0146,0.015,0.014,0.0139,0.0134,0.0123,0.0116,0.0094,0.0068,0.0047,0.0036,0.0013,0.0002,-0.0016,-0.0001,0.0003,0.0007,0.0016,0.0001,0.0005,-0.0039,-0.0039,-0.0039,0,0,0.0115,0.0127,0.0133,0.0148,0.0145,0.016,0.0139,0.0145,0.0152,0.0111,0.011,0.0081,0.0047,0.0036,0.0028,0.0018,0.0007,0.0007,0.001,0.0018,0.0002,0.0006,0.001,-0.0039,-0.0039,-0.0039,0,0,0.0134,0.0139,0.0161,0.0168,0.0176,0.0173,0.0178,0.0175,0.0168,0.0163,0.0134,0.0116,0.0083,0.0065,0.0049,0.0061,0.0028,0.0047,0.0084,0.0069,0.0073,0.0077,0.0053,0.0054,0.005,0.005,0.005,0,0.0132,0.0166,0.0165,0.019,0.0201,0.0184,0.0208,0.0201,0.019,0.0188,0.017,0.013,0.0099,0.0091,0.0093,0.0072,0.0054,0.0072,0.0077,0.0079,0.0082,0.0057,0.0057,0.0053,0.0052,0.0052,0.0052,0,0.017,0.0196,0.0211,0.024,0.0248,0.0266,0.0263,0.0262,0.0249,0.024,0.0227,0.0187,0.0164,0.0148,0.0123,0.0123,0.0102,0.0085,0.007,0.009,0.0062,0.0061,0.0057,0.0056,0.0055,0.0054,0,0,0.0175,0.0227,0.0233,0.0258,0.0279,0.0292,0.0304,0.0313,0.0326,0.0299,0.031,0.0267,0.0243,0.0224,0.0188,0.0173,0.0167,0.014,0.0138,0.0127,0.013,0.0115,0.0111,0.0153,0.0153,0.0153,0.0102,0,0.0206,0.0266,0.0282,0.0332,0.0363,0.0358,0.0373,0.0374,0.0368,0.0372,0.0329,0.032,0.0273,0.0262,0.0241,0.0191,0.0168,0.0183,0.0103,0.0101,0.0093,0.0111,0.0133,0.009,0.0101,0.01,0.01,0,0.0244,0.0283,0.0339,0.0389,0.04,0.0421,0.0447,0.0461,0.0457,0.045,0.0435,0.04,0.0373,0.0327,0.0258,0.027,0.0205,0.0161,0.0157,0.0125,0.0085,0.007,0.0087,-0.0011,0.0098,0.0098,0.0099,0,0.0259,0.0323,0.0371,0.0389,0.0436,0.0454,0.0473,0.0483,0.0506,0.0503,0.0513,0.0471,0.0455,0.038,0.0285,0.0271,0.0209,0.0174,0.0096,0.0093,0.0087,0.0084,0.0011,0.012,0.012,0.0121,0.0121,0,0.0295,0.0335,0.0383,0.0413,0.0467,0.0484,0.0536,0.0544,0.0569,0.0617,0.0556,0.058,0.0469,0.0416,0.0316,0.0214,0.023,0.011,0.0085,0.0107,0.0107,0.0,-0.007,0.0119,0.0119,0.0119,0.012,0,0.0312,0.0344,0.0406,0.0461,0.0481,0.052,0.0585,0.0625,0.0633,0.0694,0.0694,0.0665,0.0605,0.048,0.0366,0.0262,0.0099,0.011,0.0141,0.012,-0.0049,-0.0117,-0.0217,-0.0267,0.0016,0.0015,0.0015,0,0.033,0.0363,0.044,0.0483,0.0514,0.0575,0.0621,0.0654,0.071,0.0761,0.0799,0.0752,0.0757,0.0572,0.038,0.0199,0.0088,0.0078,0.0051,-0.0047,-0.0141,-0.0177,-0.0214,0.006,0.006,0.006,0.006,0,0.0365,0.0387,0.044,0.0528,0.0589,0.0665,0.0738,0.0793,0.0852,0.0915,0.0999,0.1007,0.0825,0.0676,0.0404,0.0263,0.0014,0.007,-0.0035,-0.0111,-0.0152,-0.0215,0.0071,0.0059,0.0059,0.0059,0.0059,0.0059,0.0388,0.043,0.0498,0.0585,0.0661,0.0761,0.0845,0.0938,0.1055,0.1187,0.117,0.1229,0.0963,0.0608,0.0385,0.0006,-0.0005,-0.0095,-0.0169,-0.0196,-0.024,0.0042,0.0003,0.0003,0.0003,0.0002,0.0002,0,0.0425,0.0474,0.0555,0.0667,0.0766,0.0797,0.0933,0.1043,0.1217,0.1331,0.1425,0.1351,0.101,0.0636,0.0129,-0.0152,-0.0264,-0.0312,-0.0357,-0.0386,-0.0132,-0.0124,-0.0188,-0.0188,-0.0188,-0.0188,-0.0188,-0.0188,0.0448,0.0525,0.0573,0.0743,0.083,0.0981,0.1076,0.1245,0.137,0.1568,0.1636,0.1654,0.1382,0.0424,-0.019,-0.0349,-0.0539,-0.0597,-0.0697,-0.0525,-0.051,-0.0495,-0.0503,-0.0645,-0.0646,-0.0891,-0.0894,-0.0896]}],[{"header":{"parameterUnit":"m.s-1","parameterCategory":2,"la1":30.2991,"la2":30.254,"lo1":-89.0895,"lo2":-89.0444,"dy":0.0017,"dx":0.0017,"nx":28,"ny":28,"refTime":"2025-03-14T09:00:00:Z","depth":"2","parameterNumber":2,"parameterNumberName":"U-component_of_CURRENTS"},"data":[0,0,0,0,0,0,0,0,0,0,0,0,0,0,0,0,0,0,0,0,0,0,0,0,0,0,0,0,0,0,0,0,0,0,0,0,0,0,0,0,0,0,0,0,0,0,0,0,0,0,0,0,0,0,0,0,0,0,0.1752,0.1752,0,0.1792,0.1793,0.1794,0.1797,0.1796,0.1796,0.1795,0.1813,0.1814,0.1815,0,0,0,0,0,0,0,0,0,0,0,0,0,0.1718,0.1719,0.1752,0.1752,0.1753,0.1792,0.1793,0.1794,0.1797,0.1796,0.1796,0.1795,0.1813,0.1814,0.1815,0,0,0,0,0,0,0,0,0,0,0,0,0,0.1745,0.1719,0.1752,0.1758,0.1759,0.1792,0.1793,0.1794,0.1797,0.1796,0.1795,0.1795,0.1812,0.1814,0.1815,0.1842,0,0,0.182,0.1821,0,0,0,0,0,0,0,0,0.1743,0.1746,0.1757,0.1757,0.1758,0.1787,0.1788,0.1808,0.1797,0.1784,0.1795,0.1794,0.1802,0.1804,0.1816,0.1843,0.1843,0.182,0.1821,0.1822,0.1822,0,0,0,0,0,0,0,0.1741,0.1744,0.1769,0.1757,0.1758,0.1773,0.1775,0.1792,0.1798,0.1785,0.1785,0.1788,0.1803,0.1815,0.1817,0.1844,0.182,0.1821,0.1822,0.1823,0.1925,0.1927,0,0,0,0,0,0,0.1732,0.1743,0.1768,0.177,0.1747,0.1774,0.1777,0.178,0.1798,0.18,0.1788,0.1788,0.1813,0.1815,0.1817,0.1877,0.1822,0.1823,0.1824,0.1923,0.1925,0.1927,0,0,0,0,0,0,0.1731,0.1734,0.1766,0.1756,0.1761,0.1775,0.1779,0.1781,0.18,0.1801,0.1802,0.1805,0.1812,0.1815,0.1848,0.1876,0.1824,0.1825,0.1921,0.1924,0.1926,0.1978,0,0,0,0,0,0,0.173,0.1734,0.174,0.1756,0.1761,0.1799,0.178,0.1783,0.1802,0.1802,0.1816,0.1816,0.1812,0.1846,0.185,0.1877,0.1826,0.1919,0.1922,0.1925,0.1974,0.1982,0.1989,0,0,0,0,0,0.1729,0.1739,0.174,0.1743,0.1767,0.18,0.1806,0.1813,0.1804,0.1824,0.1833,0.1816,0.187,0.1849,0.1853,0.1881,0.1917,0.1921,0.1925,0.1971,0.1981,0.1989,0,0,0,0,0,0,0.1731,0.174,0.1742,0.1754,0.1781,0.18,0.182,0.1822,0.1846,0.1847,0.184,0.1843,0.1881,0.1879,0.1856,0.1922,0.1891,0.1896,0.1924,0.1934,0.1941,0.1949,0.1828,0,0,0,0,0,0.1733,0.1742,0.176,0.1775,0.179,0.1808,0.1822,0.1832,0.185,0.186,0.1868,0.1882,0.1902,0.1915,0.1931,0.197,0.1979,0.1992,0.2,0.2006,0.2017,0.2061,0.2074,0.1941,0.1941,0.1941,0,0,0.1734,0.1745,0.1748,0.1776,0.1798,0.1827,0.1816,0.185,0.1877,0.1859,0.1901,0.1908,0.1918,0.196,0.1977,0.1962,0.205,0.2011,0.2016,0.2024,0.2067,0.208,0.2091,0.1943,0.1943,0.1942,0,0,0.1752,0.1759,0.1777,0.1797,0.1832,0.1852,0.1864,0.1894,0.1913,0.1953,0.1948,0.1978,0.2003,0.2024,0.2034,0.2097,0.2086,0.2098,0.2146,0.2189,0.22,0.221,0.2238,0.225,0.2104,0.2104,0.2104,0,0.1757,0.1779,0.1791,0.1816,0.184,0.1864,0.1899,0.1926,0.1963,0.1983,0.1973,0.2027,0.2037,0.2089,0.2114,0.2114,0.213,0.2106,0.2198,0.2208,0.2217,0.2244,0.2257,0.2107,0.2107,0.2106,0.2106,0,0.1787,0.1807,0.1825,0.1863,0.1894,0.193,0.1966,0.2001,0.2022,0.204,0.2095,0.2115,0.2145,0.2157,0.2156,0.2229,0.2216,0.2199,0.2172,0.2234,0.2258,0.227,0.2111,0.211,0.2109,0.2109,0,0,0.1788,0.1837,0.184,0.186,0.1922,0.1945,0.2007,0.2064,0.2098,0.2133,0.2185,0.2225,0.223,0.2244,0.2251,0.2295,0.2376,0.2281,0.2282,0.2305,0.2468,0.2387,0.2392,0.2374,0.2376,0.2378,0.2458,0,0.1815,0.1859,0.1886,0.1935,0.1966,0.2007,0.2057,0.2107,0.2153,0.2209,0.2241,0.2293,0.2265,0.2295,0.2332,0.2367,0.2411,0.2356,0.241,0.2411,0.2328,0.2405,0.2229,0.228,0.247,0.2472,0.2474,0,0.1832,0.1864,0.1916,0.1968,0.1986,0.2021,0.2103,0.2155,0.2237,0.2276,0.2329,0.2352,0.2426,0.2399,0.2479,0.2444,0.2467,0.2487,0.249,0.2405,0.2354,0.225,0.2294,0.2494,0.2492,0.249,0.2489,0,0.1816,0.1876,0.1919,0.1936,0.2007,0.204,0.209,0.2171,0.2223,0.2336,0.2374,0.2447,0.2497,0.2537,0.256,0.2537,0.2643,0.261,0.2558,0.2552,0.2409,0.2385,0.2682,0.2682,0.2682,0.2681,0.2681,0,0.1822,0.1845,0.1909,0.1924,0.1976,0.2034,0.2107,0.2165,0.2268,0.2333,0.2405,0.2462,0.2537,0.2588,0.2603,0.2612,0.2673,0.2587,0.2577,0.2421,0.2399,0.2583,0.257,0.2684,0.2684,0.2683,0.2683,0,0.178,0.1829,0.1866,0.1939,0.1966,0.2,0.2104,0.215,0.2255,0.235,0.2393,0.25,0.2574,0.2617,0.2705,0.2657,0.2687,0.2676,0.248,0.2445,0.2558,0.2547,0.2635,0.2633,0.2631,0.263,0.2629,0,0.1756,0.1778,0.1852,0.1876,0.1908,0.1976,0.2023,0.2139,0.2197,0.2356,0.2389,0.2506,0.2538,0.2614,0.2616,0.2631,0.2681,0.2457,0.2377,0.2577,0.2559,0.255,0.2542,0.2214,0.2209,0.2206,0.2203,0,0.1707,0.1738,0.1766,0.1819,0.1864,0.1919,0.1997,0.2035,0.2179,0.2241,0.2327,0.2369,0.2465,0.2406,0.2436,0.2415,0.2436,0.2381,0.2666,0.2241,0.2183,0.2164,0.2169,0.217,0.2173,0.2176,0.2178,0.2179,0.1655,0.1659,0.1704,0.1744,0.1793,0.1831,0.1843,0.1918,0.1976,0.2044,0.2177,0.2176,0.2241,0.2183,0.2135,0.2117,0.2274,0.2172,0.2183,0.2197,0.2122,0.2063,0.2014,0.2016,0.2018,0.202,0.2022,0,0.158,0.1602,0.1628,0.1657,0.1661,0.1739,0.1795,0.1776,0.1776,0.1882,0.1923,0.1804,0.1778,0.1848,0.1774,0.177,0.1741,0.1698,0.1657,0.1692,0.1723,0.1622,0.1382,0.138,0.1377,0.1375,0,0,0.1541,0.1531,0.1543,0.1516,0.1543,0.1528,0.1539,0.1515,0.1556,0.1529,0.1542,0.1684,0.1784,0.1552,0.1543,0.1451,0.1548,0.1392,0.1914,0.1901,0.1928,0.2017,0.1904,0,0,0,0,0]},{"header":{"parameterUnit":"m.s-1","parameterCategory":2,"la1":30.2991,"la2":30.254,"lo1":-89.0895,"lo2":-89.0444,"dy":0.0017,"dx":0.0017,"nx":28,"ny":28,"refTime":"2025-03-14T09:00:00:Z","depth":"2","parameterNumber":3,"parameterNumberName":"V-component_of_CURRENTS"},"data":[0,0,0,0,0,0,0,0,0,0,0,0,0,0,0,0,0,0,0,0,0,0,0,0,0,0,0,0,0,0,0,0,0,0,0,0,0,0,0,0,0,0,0,0,0,0,0,0,0,0,0,0,0,0,0,0,0,0,0.0062,0.0062,0,0.0042,0.0042,0.0041,0.0019,0.0019,0.0019,0.0019,-0.0039,-0.004,-0.0042,0,0,0,0,0,0,0,0,0,0,0,0,0,0.0031,0.0032,0.0062,0.0062,0.0062,0.0042,0.0042,0.0041,0.002,0.0019,0.0019,0.0019,-0.0038,-0.004,-0.0042,0,0,0,0,0,0,0,0,0,0,0,0,0,0.003,0.0032,0.0062,0.005,0.0048,0.0042,0.0042,0.0041,0.002,0.0019,0.0019,0.0019,-0.0038,-0.004,-0.0042,-0.005,0,0,-0.0048,-0.0049,0,0,0,0,0,0,0,0,0.003,0.0031,0.0051,0.005,0.0049,0.0034,0.001,0.001,0.002,0.0029,0.0019,0.0019,-0.0017,-0.002,-0.0025,-0.0052,-0.0055,-0.0048,-0.005,-0.0051,-0.0051,0,0,0,0,0,0,0,0.003,0.0031,0.0052,0.0051,0.005,0.0028,0.0028,0.0009,0.0006,0.0028,0.0027,0.0027,-0.0018,-0.0023,-0.0027,-0.0056,-0.0048,-0.005,-0.0051,-0.0052,-0.0095,-0.0095,0,0,0,0,0,0,0.0039,0.0032,0.0053,0.0052,0.0041,0.0029,0.0029,0.0038,0.0007,0.0003,0.0028,0.0026,-0.002,-0.0024,-0.0029,-0.003,-0.005,-0.0052,-0.0054,-0.0096,-0.0095,-0.0095,0,0,0,0,0,0,0.0039,0.0042,0.0054,0.0042,0.0042,0.0031,0.0041,0.0038,0.0034,0.0007,0.0002,0.0027,-0.002,-0.0026,-0.0039,-0.0033,-0.0053,-0.0055,-0.0096,-0.0096,-0.0095,-0.0039,0,0,0,0,0,0,0.0038,0.0042,0.0047,0.0043,0.0043,0.0058,0.0041,0.0038,0.0036,0.0034,0.0005,-0.0001,-0.0021,-0.0036,-0.0041,-0.0036,-0.0057,-0.0096,-0.0096,-0.0095,-0.0041,-0.0037,-0.0034,0,0,0,0,0,0.0037,0.0052,0.0048,0.005,0.0053,0.0059,0.0057,0.0046,0.0036,0.004,0.002,0.0,-0.0039,-0.0037,-0.0044,-0.0039,-0.0096,-0.0096,-0.0095,-0.0043,-0.0038,-0.0034,0,0,0,0,0,0,0.0038,0.0051,0.0046,0.0063,0.0063,0.0056,0.0058,0.005,0.0037,0.0033,0.0004,-0.0002,-0.0013,-0.0035,-0.0032,-0.0053,-0.0072,-0.0073,-0.003,-0.0026,-0.0022,-0.0006,-0.0059,0,0,0,0,0,0.0042,0.0058,0.0061,0.0073,0.0076,0.0066,0.0065,0.006,0.005,0.0044,0.0025,0.0001,-0.0018,-0.0027,-0.0048,-0.0056,-0.0076,-0.0059,-0.0056,-0.0052,-0.0044,-0.0065,-0.0062,-0.0095,-0.0095,-0.0095,0,0,0.0042,0.0054,0.006,0.0074,0.0072,0.0086,0.0065,0.007,0.0078,0.0039,0.0039,0.0014,-0.0018,-0.0026,-0.0033,-0.0042,-0.0055,-0.0052,-0.0049,-0.0042,-0.0064,-0.0061,-0.0058,-0.0095,-0.0095,-0.0095,0,0,0.0061,0.0065,0.0087,0.0094,0.0101,0.0098,0.0103,0.0099,0.0093,0.009,0.0063,0.0046,0.0017,0.0,-0.0014,-0.0003,-0.0035,-0.0015,0.0019,-0.0001,0.0002,0.0004,-0.002,-0.002,-0.0012,-0.0012,-0.0012,0,0.0059,0.0093,0.0091,0.0116,0.0127,0.0109,0.0132,0.0124,0.0115,0.0114,0.0097,0.0059,0.0031,0.0023,0.0026,0.0007,-0.0012,0.0007,0.0006,0.0007,0.0009,-0.0017,-0.0018,-0.0009,-0.0009,-0.001,-0.001,0,0.0097,0.0122,0.0136,0.0165,0.0172,0.019,0.0186,0.0185,0.0171,0.0163,0.015,0.0112,0.0092,0.0076,0.0054,0.005,0.0031,0.0014,-0.0001,0.0016,-0.0013,-0.0015,-0.0005,-0.0006,-0.0007,-0.0008,0,0,0.0104,0.0154,0.016,0.0186,0.0203,0.0217,0.0226,0.0235,0.0247,0.0219,0.0229,0.0187,0.0164,0.0147,0.0113,0.0094,0.0082,0.0062,0.006,0.0047,0.0035,0.0026,0.0023,0.0066,0.0066,0.0066,0.0011,0,0.0136,0.0196,0.021,0.026,0.0291,0.0284,0.0298,0.0298,0.029,0.0293,0.0247,0.0239,0.0192,0.0183,0.0157,0.0107,0.008,0.0099,0.0014,0.0011,0.0008,0.0021,0.0042,-0.0005,0.0009,0.0008,0.0008,0,0.0174,0.0214,0.0271,0.0321,0.0333,0.0353,0.0378,0.039,0.0382,0.0375,0.0356,0.0318,0.0287,0.0241,0.0163,0.0178,0.0112,0.0065,0.0061,0.0034,-0.0001,-0.0021,-0.0009,0.0004,0.0004,0.0005,0.0005,0,0.0195,0.0258,0.0308,0.0326,0.0372,0.039,0.0407,0.0414,0.0438,0.0429,0.044,0.0389,0.0373,0.0287,0.0189,0.0175,0.0102,0.0068,-0.0007,-0.0009,-0.0017,-0.0019,0.0006,0.0007,0.0007,0.0007,0.0007,0,0.0233,0.0274,0.0323,0.0353,0.0409,0.0424,0.0477,0.0482,0.0505,0.0553,0.0485,0.0506,0.0385,0.0326,0.0218,0.0111,0.0121,0.0005,-0.0019,0.0002,0.0002,-0.0011,-0.0012,0.0005,0.0005,0.0006,0.0006,0,0.0254,0.0284,0.035,0.0406,0.0425,0.0465,0.0532,0.0574,0.0579,0.0639,0.0639,0.06,0.0527,0.0394,0.0267,0.0162,0.0048,0.0001,0.0033,0.0014,-0.0061,-0.0059,-0.0091,-0.0091,-0.0092,-0.0092,-0.0093,0,0.0272,0.0307,0.0387,0.0432,0.0462,0.0524,0.0574,0.0608,0.0666,0.0707,0.0745,0.0687,0.0668,0.0468,0.0279,0.0088,0.0055,-0.0029,-0.0055,-0.0048,-0.0069,-0.0066,-0.0063,-0.0051,-0.0051,-0.0051,-0.0051,0,0.031,0.0334,0.0389,0.0481,0.0546,0.0625,0.0701,0.076,0.0816,0.0865,0.0925,0.0908,0.0719,0.0544,0.0276,0.0143,0.0003,-0.0036,-0.003,-0.0025,-0.0014,-0.0033,-0.0031,-0.0051,-0.0051,-0.0051,-0.0051,-0.0051,0.0335,0.0379,0.0452,0.054,0.062,0.0726,0.0807,0.0894,0.0997,0.1085,0.1063,0.1045,0.082,0.0491,0.0251,-0.0001,0.001,-0.0087,-0.0085,-0.0084,-0.0065,-0.0055,-0.0097,-0.0097,-0.0097,-0.0098,-0.0098,0,0.0374,0.0426,0.051,0.0624,0.0723,0.0757,0.0897,0.0985,0.1122,0.1184,0.1227,0.1025,0.08,0.0535,0.0169,-0.0058,-0.0083,-0.0137,-0.0114,-0.0112,-0.011,-0.0092,-0.0132,-0.0132,-0.0133,-0.0134,0,0,0.0398,0.0478,0.0527,0.0693,0.0778,0.0923,0.1013,0.1136,0.1217,0.1296,0.1287,0.122,0.0897,0.0623,0.031,0.0096,0.0043,0.0047,0.0101,0.0169,0.0173,-0.0052,-0.0017,0,0,0,0,0]}],[{"header":{"parameterUnit":"m.s-1","parameterCategory":2,"la1":30.2991,"la2":30.254,"lo1":-89.0895,"lo2":-89.0444,"dy":0.0017,"dx":0.0017,"nx":28,"ny":28,"refTime":"2025-03-14T09:00:00:Z","depth":"4","parameterNumber":2,"parameterNumberName":"U-component_of_CURRENTS"},"data":[0,0,0,0,0,0,0,0,0,0,0,0,0,0,0,0,0,0,0,0,0,0,0,0,0,0,0,0,0,0,0,0,0,0,0,0,0,0,0,0,0,0,0,0,0,0,0,0,0,0,0,0,0,0,0,0,0,0,0.089,0.089,0,0.0917,0.0918,0.0918,0.0954,0.0955,0.0956,0.0956,0.1002,0.1003,0.1004,0,0,0,0,0,0,0,0,0,0,0,0,0,0.0874,0.0874,0.089,0.089,0.089,0.0917,0.0918,0.0918,0.0954,0.0955,0.0956,0.0957,0.1002,0.1003,0.1004,0,0,0,0,0,0,0,0,0,0,0,0,0,0.0889,0.0874,0.089,0.0912,0.0915,0.0917,0.0918,0.0918,0.0954,0.0955,0.0956,0.0957,0.1002,0.1003,0.1004,0.099,0,0,0.1007,0.1007,0,0,0,0,0,0,0,0,0.0888,0.0889,0.0909,0.0911,0.0913,0.0934,0.0929,0.0943,0.0954,0.0939,0.0956,0.0958,0.0981,0.0984,0.0986,0.0992,0.0994,0.1007,0.1007,0.1008,0.1008,0,0,0,0,0,0,0,0.0887,0.0888,0.09,0.0909,0.0912,0.0923,0.0926,0.0932,0.0954,0.094,0.0943,0.0946,0.0982,0.0985,0.0987,0.0995,0.1007,0.1007,0.1008,0.1008,0.1095,0.1096,0,0,0,0,0,0,0.0883,0.0887,0.0899,0.0901,0.0903,0.0923,0.0926,0.0926,0.0953,0.0959,0.0946,0.0948,0.0982,0.0986,0.0989,0.1054,0.1008,0.1009,0.1009,0.1093,0.1095,0.1097,0,0,0,0,0,0,0.0883,0.0884,0.0898,0.0896,0.0898,0.0922,0.0921,0.0926,0.0956,0.0958,0.0963,0.0974,0.0983,0.0987,0.1026,0.1053,0.1009,0.101,0.1091,0.1094,0.1096,0.1134,0,0,0,0,0,0,0.0882,0.0883,0.0891,0.0895,0.0898,0.0919,0.0921,0.0926,0.0955,0.0959,0.0983,0.0987,0.0984,0.1025,0.1027,0.1054,0.1011,0.1089,0.1092,0.1095,0.113,0.1137,0.1143,0,0,0,0,0,0.0881,0.0885,0.0891,0.0894,0.0905,0.092,0.0923,0.0942,0.0956,0.0973,0.0997,0.0988,0.1047,0.1027,0.1029,0.1057,0.1087,0.1091,0.1095,0.1127,0.1136,0.1143,0,0,0,0,0,0,0.089,0.0889,0.0896,0.0903,0.092,0.0927,0.0944,0.0957,0.0987,0.1,0.1004,0.101,0.105,0.1054,0.1031,0.1094,0.1068,0.1072,0.1092,0.11,0.1106,0.1106,0.1011,0,0,0,0,0,0.0892,0.0893,0.0902,0.0912,0.0922,0.0939,0.0951,0.0965,0.0986,0.1001,0.1017,0.1041,0.1063,0.1083,0.1094,0.1129,0.1132,0.1152,0.1158,0.1163,0.1167,0.1189,0.1197,0.111,0.111,0.111,0,0,0.0896,0.0899,0.09,0.0914,0.0929,0.0944,0.095,0.0976,0.0998,0.1,0.1043,0.1058,0.1076,0.1113,0.1133,0.1124,0.1195,0.1168,0.1173,0.1173,0.1194,0.1202,0.1209,0.1112,0.1112,0.1111,0,0,0.0899,0.0913,0.0913,0.0928,0.0953,0.0965,0.0979,0.1001,0.1027,0.1067,0.1074,0.1113,0.1146,0.1163,0.1176,0.1229,0.1222,0.1238,0.1277,0.1299,0.1306,0.1312,0.1343,0.1351,0.125,0.125,0.125,0,0.0907,0.091,0.0919,0.0929,0.0944,0.0977,0.0991,0.1019,0.1054,0.1074,0.1092,0.1157,0.117,0.1216,0.1239,0.1242,0.1255,0.1242,0.1306,0.1312,0.1317,0.1347,0.1356,0.1252,0.1252,0.1252,0.1252,0,0.0907,0.0919,0.0928,0.0946,0.0963,0.0988,0.1019,0.1055,0.1095,0.1116,0.1179,0.1213,0.1259,0.1269,0.1273,0.1324,0.1322,0.1302,0.128,0.1328,0.1358,0.1366,0.1256,0.1255,0.1254,0.1253,0,0,0.0902,0.0922,0.093,0.0938,0.0979,0.0989,0.1036,0.1078,0.1124,0.1172,0.1231,0.1278,0.1311,0.133,0.1349,0.1371,0.1428,0.1362,0.1362,0.1383,0.1489,0.1403,0.1404,0.1417,0.1419,0.142,0.1499,0,0.0908,0.0914,0.0933,0.0958,0.0962,0.1009,0.1053,0.1095,0.1153,0.1221,0.127,0.133,0.1333,0.1376,0.1404,0.1421,0.145,0.1409,0.1448,0.1449,0.1358,0.141,0.1424,0.1505,0.1507,0.1508,0.1509,0,0.0901,0.0906,0.0922,0.0955,0.0968,0.1,0.1076,0.112,0.121,0.1261,0.1334,0.1381,0.1451,0.1442,0.1509,0.1486,0.1498,0.15,0.1503,0.1412,0.1378,0.1445,0.1524,0.1523,0.1522,0.1521,0.152,0,0.0868,0.0897,0.091,0.0923,0.0973,0.1007,0.1049,0.113,0.1186,0.1293,0.1355,0.1436,0.1507,0.1529,0.1564,0.1545,0.1619,0.1592,0.1525,0.152,0.1555,0.1548,0.1627,0.1627,0.1627,0.1627,0.1627,0,0.085,0.0863,0.0902,0.0912,0.0953,0.099,0.1067,0.1123,0.123,0.1288,0.1383,0.1447,0.1531,0.1588,0.1592,0.1594,0.1651,0.1542,0.1534,0.1573,0.1567,0.1562,0.1554,0.163,0.1629,0.1629,0.1628,0,0.0802,0.0835,0.0851,0.0909,0.0936,0.0963,0.107,0.1115,0.1228,0.1316,0.1354,0.1482,0.1551,0.1619,0.1668,0.163,0.1629,0.1609,0.167,0.1663,0.1514,0.1507,0.1552,0.155,0.1548,0.1546,0.1544,0,0.0771,0.0772,0.0837,0.0856,0.0891,0.095,0.0988,0.11,0.1142,0.1308,0.1327,0.1461,0.1529,0.1555,0.1612,0.164,0.1611,0.1607,0.1538,0.1518,0.1506,0.1502,0.1498,0.1541,0.1541,0.154,0.154,0,0.0709,0.0748,0.0765,0.0807,0.0847,0.0877,0.0936,0.098,0.1098,0.1217,0.1288,0.1355,0.1442,0.1497,0.1545,0.1544,0.1606,0.1586,0.1589,0.1524,0.1505,0.1495,0.1493,0.1533,0.1534,0.1534,0.1535,0,0.0668,0.067,0.0708,0.074,0.0785,0.0789,0.0835,0.0886,0.0959,0.1144,0.1154,0.1297,0.1413,0.1447,0.147,0.1492,0.1467,0.1406,0.1418,0.1427,0.1348,0.1304,0.1271,0,0,0,0,0,0.0619,0.0615,0.0634,0.0667,0.0708,0.0735,0.079,0.0836,0.097,0.0988,0.1081,0.1152,0.1242,0.1307,0.1308,0.1408,0.1462,0.14,0.1393,0.1493,0.1502,0.142,0,0,0,0,0,0,0.0585,0.0595,0.0606,0.06,0.0619,0.0642,0.0677,0.0748,0.077,0.092,0.0974,0.1086,0.1185,0.1246,0.1293,0.1313,0.1283,0.149,0.1487,0.1489,0.1496,0.1503,0.1422,0,0,0,0,0]},{"header":{"parameterUnit":"m.s-1","parameterCategory":2,"la1":30.2991,"la2":30.254,"lo1":-89.0895,"lo2":-89.0444,"dy":0.0017,"dx":0.0017,"nx":28,"ny":28,"refTime":"2025-03-14T09:00:00:Z","depth":"4","parameterNumber":3,"parameterNumberName":"V-component_of_CURRENTS"},"data":[0,0,0,0,0,0,0,0,0,0,0,0,0,0,0,0,0,0,0,0,0,0,0,0,0,0,0,0,0,0,0,0,0,0,0,0,0,0,0,0,0,0,0,0,0,0,0,0,0,0,0,0,0,0,0,0,0,0,0.0077,0.0077,0,0.0071,0.007,0.007,0.0055,0.0054,0.0054,0.0054,0.0018,0.0017,0.0017,0,0,0,0,0,0,0,0,0,0,0,0,0,0.0052,0.0052,0.0077,0.0077,0.0077,0.0071,0.007,0.007,0.0055,0.0054,0.0054,0.0054,0.0018,0.0017,0.0017,0,0,0,0,0,0,0,0,0,0,0,0,0,0.0055,0.0053,0.0077,0.0069,0.0068,0.0071,0.007,0.007,0.0055,0.0054,0.0054,0.0054,0.0018,0.0017,0.0016,0.0019,0,0,0.0013,0.0013,0,0,0,0,0,0,0,0,0.0055,0.0056,0.007,0.0069,0.0068,0.0063,0.0048,0.0052,0.0055,0.0059,0.0054,0.0053,0.0031,0.0029,0.0028,0.0017,0.0015,0.0013,0.0013,0.0012,0.0012,0,0,0,0,0,0,0,0.0055,0.0056,0.0074,0.007,0.0069,0.0057,0.0057,0.0049,0.0047,0.0059,0.0058,0.0058,0.003,0.0029,0.0027,0.0015,0.0013,0.0012,0.0012,0.0011,-0.0003,-0.0003,0,0,0,0,0,0,0.0059,0.0056,0.0074,0.0074,0.0061,0.0058,0.0058,0.0065,0.0047,0.0045,0.0058,0.0057,0.0031,0.0029,0.0026,0.0028,0.0012,0.0011,0.0011,-0.0003,-0.0003,-0.0003,0,0,0,0,0,0,0.0058,0.0061,0.0074,0.0065,0.0066,0.0059,0.0067,0.0065,0.0063,0.0047,0.0044,0.0058,0.0031,0.0027,0.0022,0.0027,0.0011,0.001,-0.0004,-0.0003,-0.0003,0.0032,0,0,0,0,0,0,0.0058,0.0061,0.0066,0.0065,0.0066,0.0081,0.0067,0.0065,0.0064,0.0063,0.0046,0.0042,0.003,0.0024,0.0021,0.0025,0.0009,-0.0004,-0.0004,-0.0003,0.0031,0.0034,0.0037,0,0,0,0,0,0.0057,0.0069,0.0066,0.0068,0.0074,0.0081,0.0081,0.0074,0.0065,0.0069,0.0057,0.0043,0.0024,0.0023,0.002,0.0024,-0.0004,-0.0004,-0.0003,0.003,0.0033,0.0036,0,0,0,0,0,0,0.0058,0.0069,0.0065,0.0079,0.0081,0.0079,0.0082,0.0076,0.007,0.0067,0.0048,0.0044,0.004,0.0028,0.0027,0.002,0.0007,0.0007,0.0033,0.0036,0.0039,0.0048,0.0008,0,0,0,0,0,0.0061,0.0076,0.0078,0.0089,0.0091,0.0086,0.0087,0.0083,0.0079,0.0076,0.0064,0.0051,0.004,0.0035,0.0025,0.0024,0.0004,0.0023,0.0026,0.0028,0.0034,0.0005,0.0006,-0.0001,-0.0001,-0.0001,0,0,0.0062,0.0072,0.0077,0.009,0.009,0.0103,0.0086,0.0092,0.01,0.0073,0.0078,0.0061,0.0042,0.0041,0.0037,0.0031,0.002,0.0029,0.0031,0.0035,0.0006,0.0006,0.0007,-0.0001,-0.0001,-0.0001,0,0,0.0079,0.0082,0.0101,0.0107,0.0115,0.0114,0.0116,0.0117,0.0114,0.0116,0.0097,0.0084,0.0072,0.0061,0.0052,0.0064,0.0035,0.0058,0.0081,0.0053,0.0054,0.0054,0.0031,0.0029,0.006,0.006,0.006,0,0.0078,0.0107,0.0105,0.0126,0.0136,0.0121,0.0142,0.0138,0.0136,0.0135,0.0122,0.0099,0.0082,0.0077,0.0081,0.0071,0.0051,0.007,0.0057,0.0056,0.0056,0.0033,0.003,0.0062,0.0062,0.0062,0.0061,0,0.0111,0.0133,0.0145,0.0169,0.0177,0.0193,0.019,0.0191,0.0182,0.0175,0.0166,0.014,0.0127,0.0116,0.0102,0.0092,0.0078,0.0063,0.0049,0.0059,0.0034,0.003,0.0065,0.0064,0.0063,0.0063,0,0,0.0116,0.016,0.0165,0.0189,0.0204,0.0216,0.0226,0.0234,0.0244,0.0222,0.0228,0.0199,0.0178,0.0167,0.0143,0.0117,0.0095,0.0092,0.009,0.0072,0.0035,0.0034,0.003,0.0074,0.0074,0.0073,0.002,0,0.0144,0.0197,0.0209,0.0254,0.0282,0.0277,0.0292,0.0292,0.0283,0.0283,0.0242,0.0237,0.02,0.0194,0.0162,0.0114,0.0086,0.0111,0.0027,0.0025,0.0024,0.0026,0.0072,0.0017,0.0016,0.0016,0.0015,0,0.0175,0.0211,0.0263,0.0312,0.0322,0.0342,0.0365,0.0378,0.0365,0.0356,0.0331,0.0298,0.0262,0.0227,0.0143,0.0159,0.0103,0.0059,0.0055,0.004,0.0017,0.0004,0.0008,0.0009,0.0009,0.001,0.001,0,0.0191,0.0249,0.0296,0.0312,0.0358,0.0377,0.0396,0.0399,0.0423,0.0402,0.0409,0.0349,0.033,0.0246,0.0153,0.0147,0.0056,0.0035,-0.002,-0.0021,-0.002,-0.002,-0.0026,-0.0026,-0.0026,-0.0026,-0.0026,0,0.0221,0.026,0.031,0.0338,0.0395,0.041,0.0464,0.0464,0.0483,0.051,0.0451,0.0448,0.0333,0.0266,0.017,0.0068,0.0067,-0.0014,-0.0035,-0.0004,-0.0001,-0.0023,-0.0022,-0.0028,-0.0028,-0.0027,-0.0027,0,0.0235,0.0266,0.0327,0.0385,0.0408,0.0446,0.0521,0.0557,0.0561,0.0592,0.0588,0.0528,0.0435,0.0319,0.0185,0.0104,-0.0003,-0.0041,0.001,-0.0008,-0.0068,-0.0065,-0.0108,-0.0109,-0.0109,-0.0109,-0.011,0,0.0248,0.0281,0.036,0.0402,0.0433,0.05,0.0552,0.059,0.0626,0.0636,0.0645,0.0577,0.0516,0.0336,0.0201,0.0022,-0.0007,-0.0064,-0.0077,-0.0061,-0.0077,-0.0072,-0.0068,-0.011,-0.0111,-0.0111,-0.0111,0,0.0274,0.03,0.0349,0.0435,0.0498,0.0577,0.0643,0.068,0.0715,0.0724,0.0695,0.0598,0.0498,0.0342,0.0209,0.0075,-0.003,-0.0069,-0.007,-0.0082,-0.0064,-0.0078,-0.0074,-0.0112,-0.0112,-0.0112,-0.0112,0,0.0289,0.0325,0.039,0.0465,0.0545,0.062,0.0662,0.0707,0.0748,0.0748,0.0735,0.0621,0.0557,0.0369,0.0241,0.0116,0.0076,0.0024,0.0017,0.0017,0.0064,0.0106,0.0096,0,0,0,0,0,0.0304,0.0348,0.0419,0.0504,0.0582,0.0632,0.071,0.0744,0.0775,0.0763,0.0753,0.0654,0.047,0.039,0.0265,0.022,0.0047,0.0068,-0.0017,-0.012,-0.0118,-0.0085,0,0,0,0,0,0,0.0316,0.0379,0.0419,0.0519,0.0581,0.0675,0.0725,0.075,0.0743,0.0747,0.0655,0.0613,0.0437,0.0543,0.026,0.0222,0.0147,-0.0014,-0.0017,-0.0121,-0.0119,-0.0118,-0.0084,0,0,0,0,0]}]]